Temp_Advection
nan nan nan nan nan nan nan nan nan nan nan nan nan nan nan nan nan nan nan nan nan nan nan nan nan nan nan nan nan nan nan nan nan nan nan nan nan nan nan nan nan nan nan nan nan nan nan
nan -1 -1 -2 -0 0 0 -0 -0 -0 -1 -0 -0 0 0 0 0 0 -0 -1 -1 -0 -0 -0 -0 -0 0 0 0 0 0 0 0 0 0 0 0 0 0 -0 -0 -0 -0 -1 -0 -0 nan
nan -1 -1 -1 -0 -0 0 0 0 0 -0 -0 -0 -0 -0 -0 0 0 -0 0 -1 -1 -0 -0 0 0 0 0 0 0 0 0 0 0 0 0 0 0 -0 -0 -0 -0 -0 -0 -0 -0 nan
nan -0 0 -0 0 -0 -0 0 0 0 -0 -0 -0 -0 -0 -0 -0 0 -0 -1 -1 -0 -0 0 0 0 0 0 0 0 0 0 0 0 0 0 -0 -0 -0 -0 -1 -0 -0 -0 -0 -0 nan
nan 0 0 0 -0 -0 -0 0 0 0 0 -0 -0 -0 -0 -0 -0 -0 -0 -0 -0 -0 0 1 1 -0 -0 0 0 0 -0 -0 0 0 0 -0 -0 -0 -0 -0 -0 -0 -0 -0 -1 -0 nan
nan 0 0 0 -0 0 0 0 -0 0 0 0 -0 -0 -0 -0 -0 -0 1 1 1 0 -0 1 1 -0 -0 0 0 0 0 -0 -0 0 -0 -0 -0 -0 -0 -0 -0 -0 0 -0 -0 -0 nan
nan 0 0 0 0 -0 0 -0 -0 -0 0 0 0 -0 -0 -0 -0 -0 0 1 0 0 0 0 0 0 -0 -0 0 -0 0 -0 -0 0 -0 -0 -0 -0 -0 -1 -0 0 0 -0 -1 -0 nan
nan 0 0 0 1 -0 0 0 -0 0 0 0 0 0 -0 -0 -0 -0 -0 -0 0 0 0 1 1 0 -0 -0 0 0 -0 -0 -0 0 -0 -0 -0 -1 -0 -0 0 0 -0 -0 -1 -0 nan
nan 0 1 1 1 0 0 -0 0 0 0 0 0 -0 0 -0 0 -0 -0 0 1 0 0 0 1 0 0 -0 -0 0 0 -0 -0 -0 0 0 -0 -0 0 0 0 0 -0 -1 -1 -1 nan
nan 0 1 1 0 1 0 0 -0 0 0 0 -0 -0 0 -0 -0 -0 0 0 0 0 -0 0 0 0 0 0 -0 -0 0 -0 0 0 0 0 -0 0 0 0 -0 -0 -1 -0 -0 -0 nan
nan 1 0 0 0 0 -0 0 0 -0 -0 -0 -0 0 0 -0 -0 0 -0 -0 -0 0 -0 0 0 0 0 -0 0 0 0 -0 -0 -0 -0 0 -0 -0 0 -0 -0 -1 -0 0 0 0 nan
nan 0 -0 -0 -0 -0 -0 -0 -0 -0 -0 -0 0 0 0 -0 -0 0 0 -0 0 -0 0 0 0 0 0 -0 -0 -0 0 0 -0 -0 0 -0 0 0 -0 -0 -1 -0 0 0 -0 0 nan
nan -0 -0 -0 0 0 0 0 -0 -0 -0 0 0 0 0 -0 -0 0 0 0 -0 0 0 -0 0 -0 -0 -0 -0 -0 -0 0 0 0 -0 0 0 -0 -0 -0 -0 -0 0 0 0 -0 nan
nan 0 0 -0 0 1 0 -0 -1 -0 0 -0 -0 -0 0 0 0 0 -0 -0 0 0 0 -0 -0 -0 0 -0 -0 -0 -0 -0 -0 -0 -0 0 -0 -0 -0 -0 -0 0 -0 -0 0 0 nan
nan 0 -0 0 1 1 -1 -1 -1 -0 -0 -0 0 0 -0 0 0 0 -0 0 0 0 -0 -0 -0 -0 0 -0 -0 0 -0 -0 -0 -0 -0 0 -0 -0 -0 -0 -0 0 0 0 0 0 nan
nan 0 0 0 -0 0 -0 -1 -1 -1 -0 0 0 -0 0 0 0 0 0 0 -0 -0 0 -0 -0 -0 -0 -0 0 0 -0 -0 -0 -0 -0 -0 -0 -0 -0 0 -0 0 -0 0 0 -0 nan
nan 0 0 -0 -0 -0 -0 -0 0 1 0 1 0 -0 0 0 0 -0 -0 0 0 0 -0 -0 -0 -0 -0 -0 0 -0 -0 -0 -0 -0 0 0 -0 -0 -0 -0 0 0 0 -0 -0 -0 nan
nan -0 -0 0 0 -0 0 0 1 1 0 1 -1 0 1 0 -0 -0 0 0 -0 -0 -0 -0 -0 -0 -0 -0 -0 -0 -0 -0 -0 -0 -0 -0 0 -0 -0 -0 0 0 0 0 0 -0 nan
nan 0 0 0 0 0 0 0 0 0 0 0 -0 0 1 -0 -0 0 0 0 -0 0 0 0 0 0 0 -0 0 0 0 -0 -0 -0 -0 -0 0 -0 -1 -0 -0 -0 -0 0 0 -0 nan
nan 0 0 0 0 0 0 0 0 0 0 -0 -0 -0 0 -1 -0 0 0 0 0 0 0 -0 -0 -0 -0 -0 -0 0 -0 0 -0 -0 0 -0 -0 -0 -0 -0 -0 0 -0 -0 -0 -0 nan
nan 0 0 0 0 0 0 0 0 0 -0 -0 -0 0 -0 -0 0 0 -0 -0 0 -0 -0 -1 -0 -0 -0 -0 -0 -0 -0 -0 -0 0 0 0 0 -0 -0 -0 -0 0 0 0 0 0 nan
nan 0 0 -0 -0 0 0 0 0 0 0 -0 -0 -0 0 0 -0 0 -0 0 0 0 -0 -0 -0 0 -0 0 0 0 -0 0 0 -0 0 -0 -0 -0 -0 -0 -0 0 0 0 0 0 nan
nan 0 0 0 -0 0 -0 -0 -0 -0 0 -0 -0 0 0 -0 -0 0 -0 -0 -0 -0 0 -0 0 0 0 -0 -0 -0 0 0 -0 -0 0 0 -0 -0 -0 -0 -0 -0 -0 0 0 0 nan
nan 0 0 0 -0 -0 -0 -0 -0 -0 -0 -0 0 0 -0 0 0 -0 0 -0 -0 -0 -0 -0 0 -0 -0 0 -0 -0 0 0 -0 0 0 0 -0 -0 -0 -0 0 -0 0 0 0 0 nan
nan 0 0 0 -0 -0 -0 -0 -0 -0 -0 0 0 0 -0 -0 -0 -0 -0 -0 -0 -0 -0 -0 0 0 -0 -0 -0 -0 -0 -0 0 0 0 0 -0 0 -0 -0 -1 -0 0 0 0 0 nan
nan -0 0 0 0 -0 -0 -0 -0 -0 -0 0 0 0 0 -0 -0 -0 0 -0 0 -0 -0 -0 -0 0 0 -0 0 -0 0 -0 -0 -0 -0 -0 -0 -0 -0 -0 -0 -0 0 -0 -0 0 nan
nan -0 -0 0 1 -0 -0 -0 -0 -0 -0 -0 -0 -0 0 0 -0 0 -0 -0 -0 0 -0 -0 -0 -0 -0 -0 0 0 -0 -0 -0 -0 0 0 -0 0 0 -0 -0 -0 0 0 0 0 nan
nan 0 -0 -0 1 1 -0 -0 -0 -0 -0 -0 -0 -0 -0 0 0 0 -0 -0 0 -0 -0 -0 -0 -0 -0 -0 0 0 -0 -0 -0 -0 0 0 -0 -0 0 -0 -0 0 -0 -0 -0 -0 nan
nan nan nan nan nan nan nan nan nan nan nan nan nan nan nan nan nan nan nan nan nan nan nan nan nan nan nan nan nan nan nan nan nan nan nan nan nan nan nan nan nan nan nan nan nan nan nan
Wind_Speed
37 33 30 36 33 15 13 17 20 20 19 16 15 15 13 13 14 17 19 17 15 20 21 12 18 12 10 4 4 11 8 6 11 12 9 6 6 3 2 3 5 2 3 9 11 16 18
33 28 32 32 24 22 17 15 16 17 18 16 17 15 14 14 14 16 15 17 17 11 20 15 21 13 10 3 8 9 6 10 11 8 6 6 4 4 1 1 1 6 9 12 10 17 15
31 31 29 27 23 19 17 16 17 18 17 14 12 13 16 14 17 14 14 15 16 15 12 19 22 12 9 8 12 10 9 12 10 7 7 4 2 2 2 3 9 8 6 7 11 9 7
32 29 29 22 22 20 17 17 17 17 17 14 13 10 15 15 16 13 18 18 17 22 18 26 15 18 7 12 8 10 14 11 7 4 5 2 1 2 1 4 6 4 2 4 4 1 9
35 30 29 23 20 19 17 18 17 16 16 13 12 9 10 14 14 12 14 7 15 19 19 28 22 12 8 15 10 11 13 12 10 5 2 2 5 3 1 3 4 4 3 5 7 4 5
31 30 26 21 19 19 17 17 17 14 13 12 12 7 9 12 12 5 20 15 19 33 32 22 21 13 12 13 14 11 11 10 6 4 3 3 3 3 3 4 3 3 5 5 8 5 8
29 25 22 21 19 19 21 18 15 15 12 12 6 5 5 8 9 10 13 22 24 15 9 6 13 8 18 15 16 14 11 10 7 2 1 2 4 3 6 7 5 4 6 10 18 15 16
25 22 24 25 22 22 18 18 13 12 12 7 7 8 6 8 7 3 12 8 11 15 19 17 18 23 23 20 12 13 13 5 5 3 3 3 4 7 6 6 7 8 9 18 15 13 3
27 27 29 27 30 21 12 12 11 9 8 8 9 10 9 9 6 5 13 15 20 17 7 11 15 17 9 14 8 11 13 4 3 3 3 5 5 5 6 6 8 4 5 11 13 16 13
28 32 33 31 26 21 15 6 7 5 4 7 8 8 7 6 8 10 7 2 20 7 5 4 5 3 5 8 5 11 12 1 3 2 3 5 4 3 4 7 5 6 8 15 14 9 4
36 35 32 27 25 18 13 9 4 1 1 8 8 8 9 9 6 9 5 8 9 2 5 2 3 4 5 4 14 3 10 2 2 1 3 5 3 3 5 6 7 9 1 11 10 8 3
37 32 28 25 22 19 16 13 11 11 1 4 6 12 12 12 15 19 14 12 5 4 5 3 3 1 3 5 2 5 1 1 1 2 3 7 2 3 5 4 11 9 8 6 1 2 2
35 30 26 28 26 24 18 16 17 17 18 12 16 13 8 8 10 11 7 5 4 5 4 2 4 4 3 5 2 3 2 2 2 1 3 4 4 4 5 4 3 3 4 4 4 1 4
32 28 31 30 32 27 23 20 22 21 20 19 15 12 11 11 10 7 7 3 8 3 4 4 4 5 1 3 2 4 3 2 3 2 3 3 7 4 5 5 4 4 2 2 4 3 3
30 27 31 27 29 28 28 27 26 23 20 17 11 11 14 11 7 5 4 7 3 2 5 6 5 3 1 3 2 4 4 2 5 8 1 3 5 2 5 4 3 2 3 3 3 4 1
26 26 26 26 22 26 26 27 25 22 15 11 13 16 15 11 8 7 4 9 3 2 4 4 4 4 4 4 5 5 5 3 3 7 5 2 5 2 3 1 6 5 3 2 1 4 3
23 25 23 23 22 21 23 21 18 17 14 12 11 5 11 13 9 10 5 4 2 2 3 5 1 3 4 5 6 4 5 1 3 2 7 1 1 7 5 2 3 2 4 3 3 3 2
23 23 22 17 17 17 20 21 20 18 12 10 10 3 16 14 7 3 3 3 3 3 3 3 1 3 5 6 5 4 2 2 11 4 4 6 2 4 6 5 4 3 4 2 2 5 2
19 20 22 20 18 19 17 16 16 19 19 12 5 5 14 12 4 4 3 1 2 4 3 3 4 2 2 2 3 2 0 1 11 4 3 3 2 4 8 5 5 4 6 5 3 3 3
15 14 15 16 17 17 16 15 9 17 17 13 3 3 7 9 5 2 4 3 4 4 3 3 4 3 4 4 2 1 1 3 7 5 4 3 1 5 4 6 4 6 9 8 2 3 1
14 9 11 14 15 16 18 16 13 11 12 7 5 2 3 2 5 3 0 3 3 5 6 13 5 6 1 2 2 3 4 5 3 2 3 3 3 2 6 8 5 3 5 8 6 2 3
15 11 8 9 12 15 15 15 14 13 8 6 3 2 1 3 8 2 4 5 4 3 4 3 3 4 5 3 3 3 1 2 2 4 1 1 3 1 4 3 4 4 5 5 3 4 4
15 12 10 10 9 10 14 16 13 12 8 3 6 4 3 4 4 2 3 3 3 0 3 4 3 1 2 2 5 8 8 10 7 2 2 0 2 2 4 4 4 4 3 2 1 0 1
16 14 11 10 11 10 11 12 15 14 3 6 5 2 2 2 2 1 2 3 5 5 1 2 3 1 2 9 13 9 10 11 9 7 7 2 2 2 4 4 2 4 2 2 2 1 1
16 14 12 10 10 11 10 9 11 13 8 2 1 1 0 1 1 4 8 2 3 4 2 3 3 2 9 6 3 4 4 4 3 5 4 3 3 1 1 1 5 2 4 4 4 5 3
15 13 13 11 9 10 11 10 7 8 8 4 2 1 1 3 5 3 1 3 2 3 5 2 2 6 6 3 3 1 3 2 4 7 1 1 3 3 1 1 5 3 3 4 3 5 6
15 14 11 13 10 8 9 10 8 6 5 3 2 0 2 4 5 6 4 4 2 1 2 5 6 2 3 2 1 1 3 2 3 3 2 2 1 4 3 3 6 4 5 4 2 5 9
15 15 13 12 13 11 10 10 10 8 6 4 4 5 4 5 7 9 9 6 6 5 3 2 2 2 3 2 2 2 2 3 3 4 3 4 3 4 1 2 6 8 5 5 4 5 9
16 15 14 12 13 12 9 9 10 10 8 6 5 5 5 5 6 8 13 12 10 7 5 6 4 5 5 2 1 1 2 1 3 3 1 3 5 3 7 5 4 16 5 9 8 7 9
Wind_Direction
345 338 337 325 295 296 325 316 310 313 307 300 290 289 292 300 307 289 278 282 268 249 223 194 201 166 161 170 147 136 136 147 144 140 136 127 122 119 170 307 338 204 326 321 305 297 297
357 355 352 0 340 318 314 321 317 324 316 304 301 294 292 296 305 303 288 279 274 220 224 215 205 182 156 131 151 156 141 141 142 134 152 153 115 107 119 307 26 324 317 302 299 293 287
359 356 355 353 346 337 346 339 329 325 323 306 300 296 293 293 305 302 289 272 254 208 181 205 184 186 152 152 148 153 137 132 125 134 139 143 176 149 31 341 346 318 313 311 263 269 264
355 356 0 0 358 357 352 339 334 329 329 318 305 279 289 298 309 298 301 270 237 186 167 176 174 149 104 138 155 168 146 132 156 142 167 147 342 92 56 340 344 326 13 324 293 312 258
348 350 348 350 358 352 353 348 341 336 332 326 311 289 296 307 311 313 310 192 160 171 164 165 157 134 121 151 151 150 162 159 172 182 213 54 49 69 61 72 354 344 275 267 299 227 263
346 344 346 348 353 348 350 355 349 344 332 322 327 281 304 321 323 4 62 137 146 140 133 133 136 113 152 170 160 151 152 163 137 137 91 78 61 66 33 73 239 302 297 263 269 280 308
345 350 352 349 345 348 340 349 351 351 344 344 339 336 350 341 345 275 120 93 107 91 101 104 151 94 143 158 152 156 162 136 123 169 111 69 66 219 227 215 217 241 253 265 272 269 285
353 355 349 356 346 334 333 343 352 350 354 2 3 25 41 27 356 319 46 67 76 114 72 89 100 113 126 133 132 155 154 149 171 215 157 21 248 236 224 228 246 247 274 279 280 269 264
355 354 347 339 329 348 328 332 354 6 12 16 37 58 46 75 30 14 59 79 119 112 83 68 107 116 120 126 123 155 172 183 205 221 245 242 240 249 278 262 254 245 222 266 260 299 263
2 357 349 343 342 334 340 356 340 23 27 35 40 54 44 119 74 113 67 87 132 109 87 40 50 85 137 127 85 165 178 249 222 272 285 253 272 238 269 263 181 290 221 247 267 293 294
3 356 356 354 357 3 19 26 40 16 17 53 46 43 70 107 100 123 126 148 143 142 84 72 67 92 123 70 141 100 191 267 328 6 47 264 276 284 256 229 160 239 208 289 291 277 332
6 6 10 11 20 33 43 57 47 44 19 70 36 86 101 87 82 101 115 137 135 50 77 100 112 77 117 148 71 128 157 243 71 354 226 251 236 248 229 265 211 261 303 283 283 307 321
13 17 21 33 39 33 37 41 51 69 94 90 105 108 102 81 84 101 97 145 52 68 141 147 120 172 224 131 101 189 158 202 220 333 338 313 226 240 209 298 293 145 281 310 345 288 251
21 25 38 41 37 28 50 72 81 84 90 103 108 106 95 89 80 75 26 54 64 76 71 125 120 155 99 124 123 188 173 254 209 161 278 339 332 199 177 205 275 294 260 288 304 313 344
24 35 43 47 43 60 69 81 82 79 87 83 69 83 86 93 81 44 21 53 74 117 134 120 105 102 178 220 137 191 213 261 182 185 240 303 282 273 218 194 159 340 283 216 261 237 51
26 39 47 49 53 67 74 75 81 81 57 42 62 63 62 58 29 19 71 93 97 225 117 163 154 171 160 213 180 187 199 206 205 185 225 326 293 230 290 268 219 204 335 304 282 332 315
27 46 53 56 56 54 50 51 45 41 44 29 42 62 19 8 63 61 69 70 355 356 163 192 206 146 157 182 177 200 201 242 224 210 164 352 330 303 356 184 268 316 293 235 258 199 283
34 51 58 60 44 35 37 35 39 40 21 354 31 33 13 28 55 46 42 352 348 312 283 273 173 84 169 177 186 198 194 249 193 160 186 207 204 272 251 292 243 217 257 242 156 309 36
39 49 58 57 46 26 17 19 24 28 20 10 52 4 18 30 75 1 352 35 244 3 0 49 31 22 21 87 75 25 86 257 185 192 228 149 288 328 346 355 357 348 310 263 247 47 26
39 51 56 51 42 32 19 12 25 3 4 8 37 42 23 47 61 50 4 6 358 11 10 26 25 35 26 27 63 200 291 229 216 226 223 165 192 171 194 235 245 313 321 339 43 68 315
20 36 38 38 42 40 40 25 5 18 17 15 46 54 66 349 348 338 327 323 23 6 357 19 32 25 263 52 12 22 337 349 216 271 182 154 248 184 251 253 265 264 311 336 28 286 122
360 11 349 9 19 28 29 33 21 16 23 43 57 70 43 326 320 351 356 7 23 338 10 354 68 337 11 145 182 196 324 53 253 321 275 173 271 65 286 274 329 275 321 334 3 31 49
360 353 356 339 346 9 21 19 17 0 3 77 106 69 2 355 358 32 316 342 9 32 41 48 331 2 14 245 247 261 265 273 247 285 286 207 127 58 269 343 328 328 237 304 290 295 231
352 347 353 348 336 332 354 9 14 14 23 137 121 112 79 304 14 270 11 36 8 355 301 343 356 217 302 307 301 280 271 266 259 244 204 209 140 136 257 360 13 245 244 223 192 313 8
342 345 339 348 340 336 330 345 6 21 43 160 191 68 160 181 225 332 350 343 350 343 14 319 337 346 334 331 12 352 335 335 282 236 220 177 124 3 120 223 283 215 206 195 182 268 204
334 336 334 327 337 332 329 328 335 12 34 77 139 335 296 153 239 200 184 342 328 323 338 293 331 331 348 43 41 318 256 269 310 319 255 108 84 128 131 172 235 242 185 160 113 277 206
324 326 328 323 312 316 327 326 322 316 4 29 35 265 264 286 245 210 198 190 194 208 260 311 334 340 10 59 29 254 286 278 289 280 238 322 332 199 220 252 287 244 158 140 153 248 169
311 317 323 318 316 302 304 307 319 298 285 313 289 325 286 241 266 245 236 214 182 193 171 254 10 332 13 44 150 237 196 260 320 253 229 205 171 218 136 235 291 156 110 176 214 147 173
299 308 311 315 313 310 307 305 307 314 271 264 279 312 304 274 281 269 238 236 231 227 240 201 185 185 180 111 258 314 293 276 185 271 293 268 195 213 184 218 241 192 221 222 197 189 200
Height
1513 1506 1500 1496 1489 1487 1486 1488 1486 1482 1480 1479 1479 1478 1476 1475 1473 1472 1472 1471 1471 1473 1476 1480 1482 1484 1487 1492 1493 1494 1497 1499 1501 1501 1504 1505 1504 1506 1510 1512 1508 1507 1506 1505 1504 1502 1501
1508 1502 1496 1491 1488 1485 1483 1482 1479 1478 1477 1475 1475 1474 1472 1471 1470 1468 1467 1466 1467 1468 1472 1477 1480 1483 1488 1492 1493 1496 1497 1499 1502 1502 1505 1504 1506 1507 1510 1512 1511 1509 1507 1505 1502 1500 1498
1506 1499 1493 1487 1483 1480 1479 1478 1477 1475 1473 1472 1471 1469 1468 1467 1465 1463 1462 1461 1461 1463 1469 1474 1477 1482 1488 1492 1493 1496 1499 1500 1502 1504 1505 1506 1507 1509 1510 1512 1511 1509 1507 1503 1498 1495 1495
1506 1498 1492 1486 1482 1479 1477 1475 1473 1471 1469 1468 1467 1466 1464 1462 1461 1458 1456 1453 1454 1460 1465 1471 1477 1483 1487 1492 1495 1497 1499 1501 1503 1505 1507 1508 1508 1509 1511 1513 1512 1511 1508 1508 1493 1491 1489
1504 1497 1492 1486 1481 1478 1475 1472 1469 1468 1466 1464 1463 1462 1461 1459 1456 1454 1450 1447 1451 1459 1464 1470 1477 1480 1490 1493 1496 1498 1500 1502 1504 1506 1508 1509 1509 1510 1512 1516 1524 1515 1517 1509 1497 1487 1488
1503 1496 1491 1485 1480 1478 1473 1469 1467 1465 1464 1462 1459 1459 1458 1457 1454 1453 1447 1447 1452 1460 1464 1473 1477 1485 1491 1492 1496 1499 1502 1504 1505 1508 1509 1510 1511 1514 1516 1524 1536 1514 1515 1506 1500 1490 1487
1501 1494 1489 1484 1480 1475 1472 1467 1465 1463 1461 1460 1456 1457 1457 1456 1454 1452 1449 1449 1455 1464 1470 1472 1478 1480 1486 1493 1498 1502 1504 1505 1507 1509 1512 1511 1519 1520 1515 1513 1509 1509 1511 1507 1490 1486 1486
1499 1492 1487 1482 1476 1472 1469 1466 1463 1461 1459 1458 1457 1456 1457 1457 1453 1453 1451 1449 1460 1465 1472 1479 1480 1483 1490 1495 1500 1503 1505 1508 1508 1510 1509 1514 1517 1508 1508 1507 1508 1507 1504 1495 1485 1478 1480
1497 1492 1485 1479 1471 1465 1464 1462 1460 1459 1458 1457 1457 1457 1458 1457 1453 1455 1458 1459 1463 1466 1474 1486 1490 1492 1495 1498 1501 1503 1506 1507 1506 1506 1505 1507 1506 1503 1503 1503 1505 1503 1506 1493 1490 1474 1470
1496 1490 1483 1475 1468 1464 1460 1454 1459 1458 1457 1457 1458 1459 1458 1457 1459 1461 1463 1463 1465 1465 1477 1493 1494 1497 1497 1498 1502 1504 1506 1508 1506 1504 1502 1505 1501 1500 1500 1501 1498 1497 1483 1484 1480 1477 1472
1496 1488 1480 1472 1465 1460 1457 1457 1456 1455 1456 1460 1459 1460 1458 1460 1460 1462 1464 1464 1467 1469 1481 1499 1497 1498 1498 1499 1504 1506 1506 1506 1505 1504 1508 1506 1499 1498 1499 1494 1490 1486 1479 1478 1476 1474 1475
1496 1488 1480 1472 1467 1462 1459 1457 1456 1457 1458 1461 1460 1463 1461 1461 1461 1464 1466 1467 1469 1477 1489 1496 1499 1499 1500 1502 1503 1505 1506 1507 1507 1507 1505 1502 1499 1499 1493 1485 1484 1477 1480 1478 1478 1474 1488
1497 1489 1481 1475 1470 1467 1462 1460 1459 1459 1460 1462 1463 1465 1464 1464 1465 1466 1468 1469 1477 1486 1495 1502 1499 1500 1499 1500 1505 1505 1506 1507 1506 1510 1508 1499 1495 1489 1487 1487 1478 1482 1483 1480 1492 1474 1473
1500 1493 1485 1481 1476 1471 1465 1463 1464 1466 1466 1468 1467 1468 1467 1465 1468 1469 1469 1471 1482 1488 1492 1494 1496 1500 1498 1500 1503 1504 1505 1504 1504 1506 1503 1498 1503 1483 1481 1483 1481 1480 1479 1475 1468 1458 1459
1506 1498 1492 1488 1485 1481 1476 1473 1472 1473 1474 1474 1474 1470 1471 1472 1472 1472 1472 1479 1489 1489 1490 1493 1498 1501 1501 1499 1501 1502 1503 1498 1498 1503 1501 1495 1500 1478 1477 1478 1480 1475 1474 1473 1470 1462 1473
1510 1503 1499 1495 1494 1490 1487 1484 1482 1481 1481 1480 1479 1478 1477 1476 1475 1474 1475 1482 1492 1491 1491 1493 1495 1495 1502 1499 1498 1503 1500 1497 1495 1497 1497 1495 1490 1479 1476 1477 1475 1476 1474 1471 1474 1471 1449
1516 1509 1504 1502 1500 1497 1494 1492 1489 1486 1485 1484 1482 1483 1485 1481 1478 1477 1484 1491 1490 1489 1489 1491 1489 1493 1495 1497 1498 1497 1497 1495 1494 1493 1497 1498 1499 1486 1479 1476 1474 1475 1473 1472 1468 1462 1460
1519 1513 1508 1508 1506 1504 1499 1497 1495 1493 1490 1489 1487 1489 1487 1483 1484 1488 1496 1491 1490 1490 1488 1488 1487 1488 1493 1494 1493 1491 1490 1491 1491 1492 1497 1494 1495 1496 1480 1472 1469 1469 1469 1468 1475 1461 1471
1525 1521 1516 1513 1509 1508 1506 1502 1499 1497 1495 1492 1492 1493 1491 1487 1499 1498 1494 1494 1492 1490 1489 1488 1489 1488 1487 1488 1491 1487 1489 1487 1490 1491 1492 1493 1500 1511 1490 1479 1473 1473 1468 1465 1462 1467 1474
1527 1524 1520 1517 1514 1510 1507 1505 1501 1499 1497 1495 1495 1498 1496 1495 1498 1499 1498 1497 1494 1490 1489 1488 1488 1486 1487 1489 1489 1489 1489 1488 1488 1489 1489 1490 1494 1497 1507 1490 1485 1479 1471 1466 1465 1480 1474
1527 1526 1523 1519 1516 1513 1511 1508 1504 1501 1499 1499 1498 1503 1503 1508 1501 1500 1500 1497 1495 1496 1491 1490 1491 1493 1489 1491 1492 1494 1491 1489 1487 1487 1488 1489 1494 1494 1488 1484 1479 1475 1476 1471 1470 1466 1471
1528 1525 1523 1521 1518 1515 1511 1509 1507 1504 1500 1501 1502 1503 1503 1503 1502 1500 1500 1500 1499 1498 1496 1495 1496 1495 1493 1493 1493 1494 1494 1491 1490 1487 1486 1488 1496 1489 1496 1477 1477 1474 1474 1471 1468 1467 1468
1529 1525 1523 1521 1520 1516 1513 1510 1506 1504 1503 1502 1503 1503 1504 1504 1504 1504 1504 1501 1500 1498 1498 1497 1497 1496 1494 1494 1493 1491 1491 1490 1490 1489 1488 1488 1493 1502 1496 1484 1479 1481 1470 1470 1467 1467 1467
1529 1526 1523 1521 1519 1518 1515 1511 1508 1505 1503 1503 1503 1505 1504 1509 1506 1504 1502 1501 1501 1501 1499 1498 1497 1497 1496 1494 1491 1488 1487 1486 1485 1484 1484 1486 1490 1499 1501 1487 1497 1471 1468 1468 1468 1467 1465
1527 1525 1523 1521 1519 1516 1514 1513 1509 1507 1503 1505 1506 1506 1505 1508 1506 1505 1504 1502 1500 1500 1500 1500 1498 1498 1495 1493 1493 1493 1492 1487 1481 1481 1482 1483 1489 1496 1500 1503 1478 1468 1468 1469 1468 1465 1463
1525 1523 1521 1519 1518 1515 1514 1513 1510 1507 1506 1505 1505 1506 1506 1504 1503 1502 1503 1504 1505 1503 1499 1497 1498 1497 1496 1496 1498 1494 1498 1489 1488 1486 1480 1483 1486 1493 1497 1495 1480 1463 1464 1464 1466 1473 1458
1522 1520 1519 1517 1516 1515 1514 1512 1510 1509 1507 1506 1505 1504 1505 1506 1502 1501 1501 1501 1501 1503 1504 1501 1498 1497 1495 1499 1501 1504 1506 1492 1493 1487 1482 1488 1489 1492 1491 1496 1476 1463 1463 1466 1471 1468 1458
1520 1518 1516 1515 1514 1512 1512 1511 1509 1507 1507 1506 1505 1504 1503 1500 1499 1499 1499 1499 1497 1498 1500 1498 1500 1499 1499 1500 1501 1500 1501 1497 1496 1490 1481 1485 1491 1490 1490 1488 1487 1462 1466 1469 1462 1458 1458
1517 1515 1513 1513 1511 1509 1509 1508 1507 1505 1505 1505 1505 1503 1501 1502 1500 1497 1496 1496 1496 1496 1496 1493 1494 1494 1495 1501 1503 1503 1497 1498 1495 1493 1481 1487 1479 1479 1479 1471 1459 1458 1457 1457 1457 1456 1458